{"data":{"norad_id":55162,"epoch":"2026-09-19T05:44:32.133120Z","epoch_age_seconds":134693,"freshness":"FRESH","line1":"1 55162U 23004Y   26262.23926080 -.00000400  00000+0 -11647-2 0  9992","line2":"2 55162  87.8971   2.3737 0001980 106.8342 253.3003 13.11418146178131","mean_motion":13.11418146,"eccentricity":0.000198,"inclination_deg":87.8971,"raan_deg":2.3737,"arg_perigee_deg":106.8342,"mean_anomaly_deg":253.3003,"bstar":-0.0011647,"rev_number":17813,"period_min":109.80479448086,"perigee_km":1216.1740894773,"apogee_km":1219.1820322414,"semimajor_km":7595.8150608593,"source":"CELESTRAK","updated_at":"2026-09-20T09:00:44.754867Z"}}